Tracking 31027 objects as of 19-Jul-2025
HD Live streaming from Space Station
objects crossing your sky now

INTELSAT 505

Track INTELSAT 505 now!
INTELSAT 505 is classified as:


NORAD ID: 13595
Int'l Code: 1982-097A
Perigee: 36,261.7 km
Apogee: 36,387.2 km
Inclination: 12.5 °
Period: 1,463.3 minutes
Semi major axis: 42695 km
RCS: 0.1428 m2 (medium)
Launch date: September 28, 1982
Source: International Telecommunications Satellite Organization (ITSO)
Launch site: AIR FORCE EASTERN TEST RANGE (AFETR)
Your satellite tracking list
CZ-2C R/B
Track 1 satellite(s)




NASA's NSSDC Master Catalog

Two Line Element Set (TLE):
1 13595U 82097A   25199.16100038 -.00000231  00000-0  00000-0 0  9991
2 13595  12.5452 333.4867 0014701  50.9800 133.9367  0.98408096124747
Source of the keplerian elements: AFSPC